Currently 68°F in Pinon Hills, California, USA
68°F
74°F / 68°F
3 mph W
0.00"
Thursday, September 23, 2021 5:06 AM PDT

Pinon Hills, California Climate Summary
Typical May Day

Normal High:    75.4°F (24.1°C)
Normal Low:    51.5°F (10.8°C)
Average:    63.3°F (17.4°C)

Hour    Temperature    Wind Speed    Humidity
12:00 AM    57°F (14°C)    3 mph    45%
1:00 AM    56°F (14°C)    3 mph    46%
2:00 AM    56°F (13°C)    3 mph    46%
3:00 AM    55°F (13°C)    3 mph    48%
4:00 AM    54°F (12°C)    3 mph    48%
5:00 AM    54°F (12°C)    3 mph    49%
6:00 AM    53°F (12°C)    3 mph    50%
7:00 AM    57°F (14°C)    2 mph    47%
8:00 AM    61°F (16°C)    3 mph    42%
9:00 AM    64°F (18°C)    4 mph    38%
10:00 AM    67°F (19°C)    4 mph    35%
11:00 AM    69°F (20°C)    4 mph    31%
12:00 PM    71°F (22°C)    5 mph    29%
1:00 PM    72°F (22°C)    5 mph    26%
2:00 PM    73°F (23°C)    5 mph    25%
3:00 PM    74°F (23°C)    5 mph    25%
4:00 PM    74°F (23°C)    6 mph    25%
5:00 PM    72°F (22°C)    6 mph    26%
6:00 PM    71°F (21°C)    6 mph    29%
7:00 PM    68°F (20°C)    6 mph    32%
8:00 PM    64°F (18°C)    4 mph    37%
9:00 PM    61°F (16°C)    4 mph    41%
10:00 PM    60°F (15°C)    3 mph    43%
11:00 PM    58°F (15°C)    3 mph    45%
 

The Pinon Hills, California weather pages are a service of WeatherCurrents.
Copyright ©2021  WeatherCurrents. All rights reserved. - Submit questions and comments - Privacy Policy